Regional Weather Roundup
Issued by NWS

Home | Current Version | Previous Version | Graphics & Text | Print | Product List | Glossary On
Versions: 1 2 3 4 5 6 7 8 9 10 11 12 13 14 15 16 17 18 19 20 21 22 23 24 25 26 27
000
ASUS45 KCYS 210510
RWRWY

WYOMING REGIONAL WEATHER ROUNDUP
NATIONAL WEATHER SERVICE CHEYENNE WY
1000 PM MST FRI JAN 20 2017

NOTE:  "FAIR" INDICATES FEW OR NO CLOUDS BELOW 12,000 FEET
WITH NO SIGNIFICANT WEATHER AND/OR OBSTRUCTIONS TO VISIBILITY.

WYZ001-210600-
YELLOWSTONE NATIONAL PARK

CITY           SKY/WX    TMP DP  RH WIND       PRES   REMARKS
LK YELLOWSTONE   N/A      4   2  91 CALM      29.35F
W YELLOWSTONE  NOT AVBL

$$
WYZ002>013-054>058-071-098>099-210600-
NORTHERN WYOMING

CITY           SKY/WX    TMP DP  RH WIND       PRES   REMARKS
JACKSON        MOCLDY    18  16  93 N5        29.36S WCI  11
CODY           FAIR      17  13  84 CALM      29.37F
GREYBULL       FOG       14  11  87 W5        29.39F VSB 1/4 WCI   6
WORLAND        CLOUDY    11  10  96 CALM      29.37F FOG
SHERIDAN       FAIR      26  22  84 S3        29.37F
BUFFALO        CLOUDY    33  28  81 CALM      29.37F
GILLETTE       FAIR      28  26  92 W5        29.37F WCI  23
HULETT         LGT SNOW  32  32 100 MISG      29.38S
NEWCASTLE      CLOUDY    32  32 100 NW5       29.38S WCI  27

$$
WYZ014>020-022>026-101>103-210600-
CENTRAL WYOMING

CITY           SKY/WX    TMP DP  RH WIND       PRES   REMARKS
BIG PINEY      CLOUDY     4   2  91 N8        29.40F WCI  -9
PINEDALE       FAIR      -8 -11  84 NW9       29.41R WCI -25
DUBOIS         NOT AVBL
LANDER         FAIR      18  14  84 CALM      29.37S
RIVERTON       FAIR     N/A N/A N/A NW6       29.38S FOG
CASPER         FAIR      23  17  78 W5        29.39F WCI  17
DOUGLAS        FAIR      25  20  81 NW5       29.40S WCI  19

$$
WYZ021-027>030-104>119-210600-
SOUTHERN WYOMING

CITY           SKY/WX    TMP DP  RH WIND       PRES   REMARKS
EVANSTON       CLOUDY    21  13  71 E12       29.32F WCI   9
ROCK SPRINGS   FAIR      19  13  77 SE8       29.39S WCI   9
RAWLINS        CLOUDY    21  15  78 W8        29.42F WCI  11
LARAMIE        FAIR      12   6  77 S10       29.40F WCI  -1
CHEYENNE       FAIR      29  16  58 W12       29.41F WCI  19
TORRINGTON     FAIR      32  29  88 SW3       29.40S

$$




USA.gov is the U.S. government's official web portal to all federal, state and local government web resources and services.